TimeEST,TemperatureF,Dew PointF,Humidity,Sea Level PressureIn,VisibilityMPH,Wind Direction,Wind SpeedMPH,Gust SpeedMPH,PrecipitationIn,Events,Conditions,WindDirDegrees,DateUTC
12:15 AM,32.9,32.9,100,30.28,10.0,Calm,Calm,-,N/A,,Clear,0,2012-12-15 05:15:00
12:35 AM,32.9,32.9,100,30.27,10.0,Calm,Calm,-,N/A,,Clear,0,2012-12-15 05:35:00
12:55 AM,33.3,33.3,100,30.26,10.0,Calm,Calm,-,N/A,,Clear,0,2012-12-15 05:55:00
1:15 AM,33.4,33.4,100,30.26,10.0,Calm,Calm,-,N/A,,Clear,0,2012-12-15 06:15:00
1:35 AM,32.7,32.7,100,30.24,10.0,Calm,Calm,-,N/A,,Clear,0,2012-12-15 06:35:00
1:55 AM,34.7,34.7,100,30.25,10.0,Calm,Calm,-,N/A,,Clear,0,2012-12-15 06:55:00
2:15 AM,34.0,34.0,100,30.25,10.0,Calm,Calm,-,N/A,,Clear,0,2012-12-15 07:15:00
2:35 AM,34.7,34.7,100,30.25,10.0,Calm,Calm,-,N/A,,Clear,0,2012-12-15 07:35:00
2:55 AM,34.7,34.7,100,30.27,10.0,WNW,3.5,-,N/A,,Clear,290,2012-12-15 07:55:00
3:15 AM,35.2,35.2,100,30.27,10.0,Calm,Calm,-,N/A,,Clear,0,2012-12-15 08:15:00
3:35 AM,36.0,36.0,100,30.25,5.0,Calm,Calm,-,N/A,,Clear,0,2012-12-15 08:35:00
3:55 AM,36.0,36.0,100,30.26,4.0,Calm,Calm,-,N/A,,Clear,0,2012-12-15 08:55:00
4:15 AM,35.6,35.6,100,30.25,10.0,Calm,Calm,-,N/A,,Clear,0,2012-12-15 09:15:00
4:35 AM,36.3,36.3,100,30.24,7.0,Calm,Calm,-,N/A,,Clear,0,2012-12-15 09:35:00
4:55 AM,35.8,35.8,100,30.24,7.0,Calm,Calm,-,N/A,,Clear,0,2012-12-15 09:55:00
5:15 AM,34.5,34.5,100,30.24,5.0,Calm,Calm,-,N/A,,Clear,0,2012-12-15 10:15:00
5:35 AM,34.2,34.2,100,30.25,4.0,Calm,Calm,-,N/A,,Clear,0,2012-12-15 10:35:00
5:55 AM,34.9,34.9,100,30.25,7.0,Calm,Calm,-,N/A,,Clear,0,2012-12-15 10:55:00
6:15 AM,35.4,35.4,100,30.25,5.0,Calm,Calm,-,N/A,,Clear,0,2012-12-15 11:15:00
6:35 AM,36.0,36.0,100,30.25,5.0,Calm,Calm,-,N/A,,Clear,0,2012-12-15 11:35:00
6:55 AM,36.5,36.5,100,30.26,5.0,Calm,Calm,-,N/A,,Clear,0,2012-12-15 11:55:00
7:15 AM,36.1,36.1,100,30.27,5.0,WNW,3.5,-,N/A,,Clear,300,2012-12-15 12:15:00
7:35 AM,37.4,37.4,100,30.27,5.0,Calm,Calm,-,N/A,,Scattered Clouds,0,2012-12-15 12:35:00
7:55 AM,38.3,38.3,100,30.26,4.0,Calm,Calm,-,N/A,,Scattered Clouds,0,2012-12-15 12:55:00
8:15 AM,39.2,39.2,100,30.27,4.0,Calm,Calm,-,N/A,,Clear,0,2012-12-15 13:15:00
8:35 AM,40.5,40.5,100,30.26,4.0,Calm,Calm,-,N/A,,Clear,0,2012-12-15 13:35:00
8:55 AM,40.6,40.6,100,30.27,5.0,Calm,Calm,-,N/A,,Clear,0,2012-12-15 13:55:00
9:15 AM,41.2,41.2,100,30.28,5.0,Calm,Calm,-,N/A,,Clear,0,2012-12-15 14:15:00
9:35 AM,42.1,42.1,100,30.29,5.0,NW,3.5,-,N/A,,Clear,320,2012-12-15 14:35:00
9:55 AM,43.3,43.0,99,30.29,7.0,NW,3.5,-,N/A,,Clear,320,2012-12-15 14:55:00
10:15 AM,43.9,43.5,99,30.29,4.0,Calm,Calm,-,N/A,,Scattered Clouds,0,2012-12-15 15:15:00
10:35 AM,44.6,43.9,97,30.29,5.0,Calm,Calm,-,N/A,,Clear,0,2012-12-15 15:35:00
10:55 AM,46.9,44.6,92,30.27,5.0,Calm,Calm,-,N/A,,Clear,0,2012-12-15 15:55:00
11:15 AM,48.6,43.9,84,30.28,7.0,Calm,Calm,-,N/A,,Clear,0,2012-12-15 16:15:00
11:35 AM,50.9,42.3,72,30.26,10.0,Calm,Calm,-,N/A,,Clear,0,2012-12-15 16:35:00
11:55 AM,51.8,40.6,66,30.26,10.0,Calm,Calm,-,N/A,,Clear,0,2012-12-15 16:55:00
12:15 PM,53.2,40.3,61,30.25,10.0,Calm,Calm,-,N/A,,Clear,0,2012-12-15 17:15:00
12:35 PM,55.0,39.7,56,30.23,10.0,East,4.6,-,N/A,,Clear,100,2012-12-15 17:35:00
12:55 PM,56.7,40.1,54,30.22,10.0,East,3.5,-,N/A,,Scattered Clouds,90,2012-12-15 17:55:00
1:15 PM,56.7,38.8,51,30.20,10.0,ESE,3.5,-,N/A,,Scattered Clouds,110,2012-12-15 18:15:00
1:35 PM,58.3,38.5,48,30.20,10.0,Calm,Calm,-,N/A,,Scattered Clouds,0,2012-12-15 18:35:00
1:55 PM,58.1,39.0,49,30.19,10.0,Calm,Calm,-,N/A,,Scattered Clouds,0,2012-12-15 18:55:00
2:15 PM,59.4,39.6,48,30.19,10.0,Calm,Calm,-,N/A,,Mostly Cloudy,0,2012-12-15 19:15:00
2:35 PM,59.7,39.4,47,30.18,10.0,Calm,Calm,-,N/A,,Scattered Clouds,0,2012-12-15 19:35:00
2:55 PM,60.4,39.6,46,30.18,10.0,Calm,Calm,-,N/A,,Scattered Clouds,0,2012-12-15 19:55:00
3:15 PM,59.7,39.7,48,30.18,10.0,Calm,Calm,-,N/A,,Clear,0,2012-12-15 20:15:00
3:35 PM,60.1,40.5,48,30.17,10.0,ESE,3.5,-,N/A,,Scattered Clouds,110,2012-12-15 20:35:00
3:55 PM,60.1,40.8,49,30.17,10.0,North,-9999.0,-,N/A,,Clear,0,2012-12-15 20:55:00
4:15 PM,59.5,41.5,51,30.16,10.0,Calm,Calm,-,N/A,,Clear,0,2012-12-15 21:15:00
4:35 PM,59.9,41.0,50,30.16,10.0,Calm,Calm,-,N/A,,Clear,0,2012-12-15 21:35:00
4:55 PM,58.8,41.2,52,30.16,10.0,SE,3.5,-,N/A,,Clear,140,2012-12-15 21:55:00
5:15 PM,56.3,41.5,58,30.16,10.0,Calm,Calm,-,N/A,,Scattered Clouds,0,2012-12-15 22:15:00
5:35 PM,53.1,43.5,70,30.16,10.0,Calm,Calm,-,N/A,,Scattered Clouds,0,2012-12-15 22:35:00
5:55 PM,51.8,44.6,76,30.17,10.0,Calm,Calm,-,N/A,,Overcast,0,2012-12-15 22:55:00
6:15 PM,50.9,45.0,80,30.17,10.0,Calm,Calm,-,N/A,,Mostly Cloudy,0,2012-12-15 23:15:00
6:35 PM,50.4,45.3,83,30.16,10.0,Calm,Calm,-,N/A,,Mostly Cloudy,0,2012-12-15 23:35:00
6:55 PM,49.5,44.6,83,30.16,10.0,Calm,Calm,-,N/A,,Scattered Clouds,0,2012-12-15 23:55:00
7:15 PM,48.4,44.6,87,30.16,10.0,Calm,Calm,-,N/A,,Scattered Clouds,0,2012-12-16 00:15:00
7:35 PM,47.7,44.6,89,30.16,10.0,Calm,Calm,-,N/A,,Scattered Clouds,0,2012-12-16 00:35:00
7:55 PM,46.9,44.4,91,30.17,10.0,Calm,Calm,-,N/A,,Mostly Cloudy,0,2012-12-16 00:55:00
8:15 PM,47.5,44.8,90,30.17,10.0,Calm,Calm,-,N/A,,Overcast,0,2012-12-16 01:15:00
8:35 PM,47.1,45.1,93,30.19,10.0,WNW,5.8,-,N/A,,Overcast,300,2012-12-16 01:35:00
8:55 PM,47.5,45.1,92,30.16,10.0,Calm,Calm,-,N/A,,Mostly Cloudy,0,2012-12-16 01:55:00
9:15 PM,46.9,44.6,92,30.16,10.0,Calm,Calm,-,N/A,,Scattered Clouds,0,2012-12-16 02:15:00
9:35 PM,46.9,44.1,90,30.16,10.0,Calm,Calm,-,N/A,,Clear,0,2012-12-16 02:35:00
9:55 PM,45.5,43.9,94,30.16,10.0,Calm,Calm,-,N/A,,Scattered Clouds,0,2012-12-16 02:55:00
10:15 PM,45.0,43.7,95,30.14,10.0,ESE,4.6,-,N/A,,Scattered Clouds,120,2012-12-16 03:15:00
10:35 PM,45.5,43.9,94,30.15,10.0,Calm,Calm,-,N/A,,Scattered Clouds,0,2012-12-16 03:35:00
10:55 PM,45.9,44.6,95,30.14,10.0,Calm,Calm,-,N/A,,Mostly Cloudy,0,2012-12-16 03:55:00
11:15 PM,46.8,45.1,94,30.16,10.0,Calm,Calm,-,N/A,,Overcast,0,2012-12-16 04:15:00
11:35 PM,46.9,45.5,95,30.15,10.0,Calm,Calm,-,N/A,,Overcast,0,2012-12-16 04:35:00
11:55 PM,47.7,45.7,93,30.13,10.0,Calm,Calm,-,N/A,,Mostly Cloudy,0,2012-12-16 04:55:00